This demonstration page uses our WeatherBlox Daily Observations layout. Learn more.

Left ArrowRight Arrow

44.8408, -93.29828

Hourly Observations for July 30, 2022

Temp ( °F °C ) Dew Point ( °F °C ) Humidity (%) Winds ( mph kmh ) Pressure ( in mb ) Visibility ( mi km ) Precip ( " mm )
12:53 am 00:53 Clear 68 20 57 13.9 68 68 S 3 6 30.11 1020 10 16 0.00 0.00
1:53 am 01:53 Clear 68 20 57 13.9 68 68 S 5 7 30.10 1019 10 16 0.00 0.00
2:53 am 02:53 Clear 65 18.3 57 13.9 76 76 S 3 6 30.11 1020 10 16 0.00 0.00
3:53 am 03:53 Clear 64 17.8 57 13.9 78 78 SSW 5 7 30.12 1020 10 16 0.00 0.00
4:53 am 04:53 Clear 63 17.2 57 13.9 81 81 Calm 30.12 1020 10 16 0.00 0.00
5:53 am 05:53 Clear 63 17.2 56 13.3 78 78 SSW 3 6 30.14 1021 10 16 0.00 0.00
6:53 am 06:53 Sunny 65 18.3 56 13.3 73 73 SSW 6 9 30.13 1020 10 16 0.00 0.00
7:53 am 07:53 Sunny 68 20 55 12.8 63 63 SSW 9 15 30.14 1021 10 16 0.00 0.00
8:53 am 08:53 Sunny 72 22.2 56 13.3 57 57 SSW 7 11 30.12 1020 10 16 0.00 0.00
9:53 am 09:53 Sunny 77 25 55 12.8 47 47 SW 10 17 30.11 1020 10 16 0.00 0.00
10:53 am 10:53 Sunny 80 26.7 56 13.3 44 44 SSW 13 20 30.09 1019 10 16 0.00 0.00
11:53 am 11:53 Sunny 82 27.8 58 14.4 44 44 S 14 22 30.08 1019 10 16 0.00 0.00
12:53 pm 12:53 Sunny 84 28.9 59 15 43 43 SSW 14 22 30.06 1018 10 16 0.00 0.00
1:53 pm 13:53 Mostly Sunny 86 30 57 13.9 37 37 SSW 12 19 30.05 1018 10 16 0.00 0.00
2:53 pm 14:53 Mostly Sunny 87 30.6 55 12.8 34 34 WSW 13 20 30.04 1017 10 16 0.00 0.00
3:53 pm 15:53 Partly Cloudy 87 30.6 58 14.4 37 37 SW 14 22 30.03 1017 10 16 0.00 0.00
4:53 pm 16:53 Partly Cloudy 85 29.4 59 15 42 42 SW 10 17 30.02 1017 10 16 0.00 0.00
5:53 pm 17:53 Partly Cloudy 85 29.4 60 15.6 43 43 SSW 13 20 30.01 1016 10 16 0.00 0.00
6:53 pm 18:53 Partly Cloudy 84 28.9 61 16.1 46 46 SSW 14 22 30.01 1016 10 16 0.00 0.00
7:53 pm 19:53 Mostly Sunny 83 28.3 61 16.1 48 48 SSW 15 24 30.00 1016 10 16 0.00 0.00
8:53 pm 20:53 Clear 80 26.7 63 17.2 56 56 SSW 10 17 30.00 1016 10 16 0.00 0.00
9:53 pm 21:53 Clear 79 26.1 62 16.7 56 56 SSW 9 15 30.01 1016 10 16 0.00 0.00
10:53 pm 22:53 Clear 77 25 61 16.1 58 58 SSW 8 13 30.01 1016 10 16 0.00 0.00
11:53 pm 23:53 Clear 76 24.4 61 16.1 60 60 SSW 10 17 30.01 1016 10 16 0.00 0.00

Powered by AerisWeather